This is the latest recevied weather packets stored in our database for station/object W7BL. If no packets are shown the sender has not sent any weather packets the latest 10 day(s).
| Time | Temp. | Humidity | Pressure | Rain* | Wind** | Luminosity | Snow |
|---|---|---|---|---|---|---|---|
| 1777489668 | 16.67° C | 44% | - | 0 mm | - | - | - |
| 1777489364 | 17.22° C | 40% | - | 0 mm | - | - | - |
| 1777489061 | 16.11° C | 41% | - | 0 mm | - | - | - |
| 1777488758 | 17.22° C | 43% | - | 0 mm | - | - | - |
| 1777488456 | 16.11° C | 44% | - | 0 mm | - | - | - |
| 1777488154 | 16.11° C | 41% | - | 0 mm | - | - | - |
| 1777487852 | 16.11° C | 45% | - | 0 mm | - | - | - |
| 1777487550 | 16.11° C | 45% | - | 0 mm | - | - | - |
| 1777487246 | 15.56° C | 47% | - | 0 mm | - | - | - |
| 1777486942 | 15° C | 47% | - | 0 mm | - | - | - |
| 1777486639 | 15° C | 49% | - | 0 mm | - | - | - |
| 1777486337 | 15.56° C | 49% | - | 0 mm | - | - | - |
| 1777486034 | 15.56° C | 49% | - | 0 mm | - | - | - |
| 1777485730 | 15.56° C | 50% | - | 0 mm | - | - | - |
| 1777485426 | 15° C | 52% | - | 0 mm | - | - | - |
| 1777485121 | 15° C | 51% | - | 0 mm | - | - | - |
| 1777484819 | 15° C | 52% | - | 0 mm | - | - | - |
| 1777484516 | 13.89° C | 53% | - | 0 mm | - | - | - |
| 1777484213 | 14.44° C | 52% | - | 0 mm | - | - | - |
| 1777483909 | 14.44° C | 54% | - | 0 mm | - | - | - |
| 1777483606 | 14.44° C | 53% | - | 0 mm | - | - | - |
| 1777483306 | 14.44° C | 53% | - | 0 mm | - | - | - |
| 1777483002 | 15° C | 52% | - | 0 mm | - | - | - |
| 1777482699 | 13.33° C | 57% | - | 0 mm | - | - | - |
| 1777482395 | 13.33° C | 56% | - | 0 mm | - | - | - |
* Rain latest hour (hover to see other rain measurements)
** Current wind speed in m/s (hover to see current wind gust speed)